Location: Saint-Gilles les Bains
(21.0539°S, 55.2287°E)
Time: 22:08:58
(UTC+04:00)

Hubble Space Telescope - Pass Details

Date: 25 June 2021
Orbit: 535 x 539 km, 28.5° (Epoch: 25 July)

Event Time Altitude Azimuth Distance (km) Brightness Sun altitude
Exits shadow 04:42:59 25° 45° (NE) 1,096 2.8 -30.0°
Drops below altitude 10° 04:44:53 10° 54° (NE) 1,787 4.2 -29.6°
Sets 04:47:10 0° 58° (ENE) 2,675 5.4 -29.1°
